Вернуться в каталог

CZ-4 DEB

АктивенSSO
NORAD 20867·DEBRIS·🇨🇳 China

Запущен Sep 3, 1990 с Taiyuan Satellite Launch Center

Loading…

Ближайшие Пролёты (ближайшие 24 часа)

TLE

СвежийSource: Space-Track

Эпоха: Sep 14, 2026, 10:12 UTC

1 20867U 90081AF  26257.42503160  .00000204  00000-0  14304-3 0  9995
2 20867  98.9707 237.3516 0104052 104.8903  47.5490 14.06331721839129

Отслеживайте CZ-4 DEB в реальном времени с AllMySat

Download on the App Store